Flag for Denmark Weather past 2 weeks in Copenhagen, Denmark

Now
39 °F

Light rain. Partly sunny.


Feels Like: 31 °F
Forecast: 36 / 42 °F
Wind: 14 mph from South

Location: Koebenhavn-Kastrup Airport

Current Time: Mar 2, 2015 at 9:02:31 AM

Latest Report: Mar 2, 2015 at 8:20 AM


Visibility: 4 mi

Pressure: 29.24 "Hg

Humidity: 93%

Dew point: 37 °F

Location of CopenhagenLocation

Historic Weather in Copenhagen — Graph

°F

Copenhagen temperature yesterday

Maximum temperature yesterday: 41 °F (at 3:50 PM)
Minimum temperature yesterday: 36 °F (at 8:51 AM)
Average temperature yesterday: 38 °F

Past Weeks' High & Low Weather Summary

 TemperatureHumidityPressure
High43 °F (Feb 18, 11:50 AM)100% (Feb 17, 10:50 PM)30.54 "Hg (Feb 17, 10:50 PM)
Low30 °F (Feb 26, 2:50 AM)66% (Feb 27, 12:20 PM)29.18 "Hg (Feb 21, 2:50 PM)
Average38 °F87%29.88 "Hg
* Reported Feb 15 7:20 AM — Mar 2 7:50 AM, Copenhagen, Weather by CustomWeather, © 2015

Note: Actual official high and low records may vary slightly from our data, if they occured in-between our weather recording intervals... More about our weather records

Advertising

Copenhagen weather history for previous 24 hours

 ConditionsComfort  
Time TempWeatherWind HumidityBarometerVisibility
7:50 AM
Mon, Mar 2
39 °FRain. Partly sunny.17 mph93%29.24 "Hg3 mi
7:20 AM39 °FLight rain. Partly sunny.16 mph87%29.24 "HgN/A
6:50 AM39 °FPartly cloudy.14 mph87%29.24 "HgN/A
6:20 AM39 °FPassing clouds.12 mph87%29.27 "HgN/A
5:50 AM37 °FPassing clouds.14 mph93%29.27 "HgN/A
5:20 AM37 °FClear.12 mph93%29.30 "Hg10 mi
4:50 AM39 °FClear.13 mph87%29.30 "Hg10 mi
4:20 AM37 °FPassing clouds.14 mph93%29.30 "HgN/A
3:50 AM37 °FClear.13 mph93%29.33 "Hg10 mi
3:20 AM37 °FClear.12 mph93%29.33 "Hg10 mi
2:50 AM37 °FClear.10 mph87%29.33 "Hg10 mi
2:20 AM37 °FPassing clouds.12 mph93%29.36 "HgN/A
1:50 AM37 °FPassing clouds.10 mph87%29.36 "HgN/A
1:20 AM37 °FPassing clouds.10 mph93%29.39 "HgN/A
12:50 AM37 °FPassing clouds.10 mph93%29.39 "HgN/A
12:20 AM39 °FPassing clouds.9 mph93%29.39 "HgN/A
11:50 PM
Sun, Mar 1
37 °FPassing clouds.12 mph93%29.39 "HgN/A
11:20 PM37 °FPassing clouds.12 mph93%29.39 "HgN/A
10:50 PM39 °FPassing clouds.12 mph93%29.39 "HgN/A
10:20 PM39 °FPassing clouds.12 mph87%29.39 "HgN/A
9:50 PM39 °FPassing clouds.14 mph87%29.39 "HgN/A
9:20 PM41 °FPartly cloudy.15 mph87%29.39 "HgN/A
8:20 PM39 °FPassing clouds.16 mph93%29.39 "HgN/A
7:50 PM41 °FPartly cloudy.14 mph87%29.39 "HgN/A
7:20 PM41 °FPartly cloudy.14 mph87%29.39 "HgN/A
6:50 PM41 °FPartly cloudy.15 mph87%29.39 "HgN/A
6:20 PM41 °FPartly cloudy.15 mph87%29.39 "HgN/A
5:50 PM41 °FPassing clouds.13 mph93%29.36 "HgN/A
5:20 PM41 °FScattered clouds.13 mph87%29.36 "HgN/A
4:20 PM41 °FPartly sunny.15 mph93%29.36 "HgN/A
3:50 PM41 °FBroken clouds.15 mph93%29.36 "HgN/A
3:20 PM39 °FMore clouds than sun.16 mph100%29.36 "Hg6 mi
2:50 PM39 °FDrizzle. Low clouds.16 mph100%29.36 "Hg5 mi
2:20 PM39 °FLow clouds.16 mph93%29.36 "Hg4 mi
1:50 PM37 °FFog.18 mph100%29.39 "Hg3 mi
1:21 PM37 °FFog.21 mph100%29.39 "Hg2 mi
12:50 PM37 °FLight rain. Partly sunny.22 mph93%29.39 "Hg4 mi
12:20 PM37 °FLight rain. Partly sunny.22 mph93%29.39 "Hg4 mi
11:50 AM37 °FLight rain. Partly sunny.23 mph93%29.42 "Hg3 mi
11:20 AM37 °FLight rain. Partly sunny.23 mph93%29.42 "Hg3 mi
10:50 AM36 °FLight rain. Partly sunny.24 mph93%29.42 "Hg4 mi
10:20 AM36 °FLight rain. Partly sunny.24 mph93%29.45 "Hg4 mi
9:50 AM36 °FRain. Partly sunny.23 mph93%29.45 "Hg4 mi
9:20 AM36 °FRain. Partly sunny.24 mph93%29.47 "Hg4 mi
Weather by CustomWeather, © 2015

See weather overviewHow to use our weather pages